Weather History for Tampa, FL

Change the Weather History Date:

Saturday, February 22, 2014

  Actual Average Record
Temperature  
Mean Temperature 73 °F 64 °F  
Max Temperature 78 °F 73 °F 85 °F (1949)
Min Temperature 68 °F 55 °F 32 °F (1977)
Degree Days  
Heating Degree Days 0 3  
Month to date heating degree days 64 89  
Since 1 July heating degree days 382 454  
Cooling Degree Days 8 2  
Month to date cooling degree days 58 44  
Year to date cooling degree days 79 94  
Growing Degree Days 24 (Base 50)    
Moisture  
Dew Point 69 °F    
Average Humidity 85    
Maximum Humidity 100    
Minimum Humidity 69    
Precipitation  
Precipitation 0.19 in 0.10 in 1.66 in (1904)
Month to date precipitation 1.59 2.25  
Year to date precipitation 4.73 4.48  
Sea Level Pressure  
Sea Level Pressure 30.08 in    
Wind  
Wind Speed 4 mph (SSW)    
Max Wind Speed 9 mph    
Max Gust Speed 14 mph    
Visibility 4 miles    
Events Fog , Rain    
T = Trace of Precipitation, MM = Missing Value Source: NWS Daily Summary

Daily Weather History Graph

Daily Weather History Graph

Search for Another Location

Airport:

Trip Planner

Search our weather history database for the weather conditions in past years. The results will help you decide how hot, cold, wet, or windy it might be!

Date:

Astronomy

Feb. 22, 2014 Rise Set
Actual Time 7:01 AM EST 6:26 PM EST
Civil Twilight 6:37 AM EST 6:49 PM EST
Nautical Twilight 6:10 AM EST 7:17 PM EST
Astronomical Twilight 5:43 AM EST 7:44 PM EST
Moon 12:43 AM EST (2/22) 11:48 AM EST (2/22)
Length of Visible Light 12h 11m
Length of Day
11h 24m
Waning Gibbous, 50% of the Moon is Illuminated
Feb 22
Waning Gibbous
Feb 22
Last Quarter
Mar 1
New
Mar 8
First Quarter
Mar 16
Full

Hourly Weather History & Observations

Time (EST) Temp. Dew Point Humidity Pressure Visibility Wind Dir Wind Speed Gust Speed Precip Events Conditions
12:01 AM 70.0 °F 69.1 °F 97% 30.08 in 0.2 mi South 5.8 mph - N/A Fog Fog
12:23 AM 70.0 °F 69.1 °F 97% 30.07 in 0.5 mi South 5.8 mph - N/A Fog Fog
12:53 AM 70.0 °F 70.0 °F 100% 30.06 in 0.5 mi South 3.5 mph - N/A Fog Fog
1:20 AM 70.0 °F 70.0 °F 100% 30.06 in 0.2 mi South 4.6 mph - N/A Fog Fog
1:37 AM 70.0 °F 70.0 °F 100% 30.06 in 0.2 mi South 6.9 mph - N/A Fog Fog
1:53 AM 70.0 °F 70.0 °F 100% 30.05 in 0.2 mi South 5.8 mph - N/A Fog Fog
2:53 AM 70.0 °F 70.0 °F 100% 30.04 in 0.2 mi South 4.6 mph - N/A Fog Fog
3:53 AM 70.0 °F 69.1 °F 97% 30.04 in 0.2 mi South 3.5 mph - N/A Fog Fog
4:53 AM 70.0 °F 70.0 °F 100% 30.04 in 0.2 mi SSE 3.5 mph - 0.00 in Fog Fog
5:25 AM 70.0 °F 69.1 °F 97% 30.04 in 0.2 mi SSW 3.5 mph - 0.01 in Fog , Rain Light Rain
5:53 AM 70.0 °F 69.1 °F 97% 30.05 in 0.2 mi SSW 3.5 mph - 0.01 in Fog Fog
6:26 AM 69.1 °F 69.1 °F 100% 30.06 in 0.5 mi South 4.6 mph - N/A   Mist
6:53 AM 70.0 °F 69.1 °F 97% 30.07 in 0.5 mi South 3.5 mph - N/A   Mist
6:58 AM 70.0 °F 69.1 °F 97% 30.07 in 0.2 mi South 3.5 mph - N/A   Mist
7:22 AM 70.0 °F 69.1 °F 97% 30.07 in 0.5 mi South 3.5 mph - N/A   Overcast
7:30 AM 70.0 °F 69.1 °F 97% 30.08 in 0.5 mi South 4.6 mph - N/A   Overcast
7:39 AM 69.1 °F 69.1 °F 100% 30.08 in 2.0 mi SSW 4.6 mph - N/A   Overcast
7:50 AM 69.8 °F 69.8 °F 100% 30.08 in 8.0 mi South 4.6 mph - N/A   Overcast
7:53 AM 69.1 °F 69.1 °F 100% 30.08 in 8.0 mi South 4.6 mph - N/A   Overcast
8:06 AM 69.1 °F 69.1 °F 100% 30.09 in 9.0 mi SSW 5.8 mph - N/A   Overcast
8:31 AM 69.1 °F 69.1 °F 100% 30.09 in 1.0 mi South 5.8 mph - N/A   Overcast
8:42 AM 69.1 °F 69.1 °F 100% 30.10 in 0.2 mi SSW 6.9 mph - N/A Fog Fog
8:53 AM 69.1 °F 69.1 °F 100% 30.11 in 0.2 mi SSW 4.6 mph - N/A Fog Fog
9:04 AM 69.1 °F 69.1 °F 100% 30.11 in 0.1 mi South 5.8 mph - N/A Fog Fog
9:10 AM 69.1 °F 69.1 °F 100% 30.11 in 0.1 mi South 5.8 mph - N/A Fog Fog
9:12 AM 69.1 °F 69.1 °F 100% 30.11 in 0.2 mi South 5.8 mph - N/A Fog Fog
9:40 AM 70.0 °F 69.1 °F 97% 30.12 in 0.2 mi SSW 3.5 mph - N/A Fog Fog
9:53 AM 70.0 °F 70.0 °F 100% 30.12 in 0.2 mi WSW 4.6 mph - N/A   Overcast
10:21 AM 70.0 °F 70.0 °F 100% 30.12 in 0.2 mi SSW 4.6 mph - 0.08 in Fog , Rain Rain
10:32 AM 70.0 °F 70.0 °F 100% 30.12 in 1.0 mi Calm Calm - 0.17 in Rain Light Rain
10:50 AM 69.8 °F 69.8 °F 100% 30.12 in 2.0 mi West 3.5 mph - 0.17 in Rain Light Rain
10:53 AM 70.0 °F 70.0 °F 100% 30.12 in 2.0 mi Calm Calm - 0.17 in   Overcast
11:02 AM 71.1 °F 70.0 °F 96% 30.12 in 3.0 mi West 3.5 mph - 0.01 in   Overcast
11:21 AM 70.0 °F 70.0 °F 100% 30.12 in 8.0 mi Variable 4.6 mph - 0.01 in   Overcast
11:53 AM 71.1 °F 70.0 °F 96% 30.11 in 8.0 mi West 3.5 mph - 0.01 in   Overcast
12:22 PM 73.0 °F 70.0 °F 90% 30.09 in 9.0 mi SSW 3.5 mph - N/A   Mostly Cloudy
12:53 PM 73.0 °F 70.0 °F 90% 30.08 in 10.0 mi Variable 4.6 mph - N/A   Mostly Cloudy
1:53 PM 75.9 °F 69.1 °F 79% 30.05 in 10.0 mi WSW 4.6 mph - N/A   Mostly Cloudy
2:53 PM 77.0 °F 69.1 °F 76% 30.03 in 10.0 mi SW 6.9 mph - N/A   Mostly Cloudy
3:53 PM 77.0 °F 66.0 °F 69% 30.03 in 10.0 mi West 6.9 mph - N/A   Scattered Clouds
4:53 PM 77.0 °F 66.0 °F 69% 30.03 in 10.0 mi West 5.8 mph - N/A   Scattered Clouds
5:53 PM 75.0 °F 66.9 °F 76% 30.04 in 10.0 mi SW 4.6 mph - N/A   Mostly Cloudy
6:53 PM 73.0 °F 68.0 °F 84% 30.05 in 10.0 mi WSW 4.6 mph - N/A   Mostly Cloudy
7:53 PM 73.0 °F 66.0 °F 79% 30.07 in 10.0 mi WNW 4.6 mph - N/A   Mostly Cloudy
8:53 PM 73.0 °F 64.9 °F 76% 30.09 in 10.0 mi NW 3.5 mph - N/A   Mostly Cloudy
9:53 PM 72.0 °F 64.9 °F 78% 30.10 in 10.0 mi Calm Calm - N/A   Partly Cloudy
10:33 PM 73.0 °F 66.0 °F 79% 30.10 in 10.0 mi Calm Calm - N/A   Mostly Cloudy
10:53 PM 73.0 °F 66.0 °F 79% 30.10 in 10.0 mi Calm Calm - N/A   Mostly Cloudy
11:53 PM 68.0 °F 66.9 °F 96% 30.09 in 7.0 mi South 5.8 mph - N/A   Mostly Cloudy